Location: Newark
(52.4787°S, 179.0532°W)
Time: 22:27:16
(UTC+00:00)

Envisat - Pass Details

Date: 24 October 2019
Orbit: 764 x 766 km, 98.1° (Epoch: 14 November)

Event Time Altitude Azimuth Distance (km) Brightness Sun altitude
Rises 07:51:15 0° 170° (S) 3,278 6.6 -9.3°
Reaches altitude 10° 07:53:40 10° 175° (S) 2,345 5.9 -9.6°
Maximum altitude 07:58:33 44° 246° (WSW) 1,068 4.4 -10.2°
Drops below altitude 10° 08:03:23 10° 316° (NW) 2,320 5.6 -10.8°
Sets 08:05:46 0° 322° (NW) 3,239 6.3 -11.1°
